[[{"header":{"parameterUnit":"m.s-1","parameterCategory":1,"la1":30.2991,"la2":30.254,"lo1":-89.0895,"lo2":-89.0444,"dy":0.0017,"dx":0.0017,"nx":28,"ny":28,"refTime":"2024-08-03T09:00:00:Z","depth":0,"parameterNumber":2,"parameterNumberName":"U-component_of_WINDS"},"data":[0,0,0,0,0,0,0,0,0,0,0,0,0,0,0,0,0,0,0,0,0,0,0,0,0,0,0,0,0,0,0,0,0,0,0,0,0,0,0,0,0,0,0,0,0,0,0,0,0,0,0,0,0,0,0,0,0,0,-1.6823,-1.6823,0,-1.6776,-1.6776,-1.6775,-1.6647,-1.6645,-1.6642,-1.6639,-1.6596,-1.6598,-1.6599,0,0,0,0,0,0,0,0,0,0,0,0,0,-1.6806,-1.6807,-1.6823,-1.6823,-1.6822,-1.6776,-1.6776,-1.6775,-1.6648,-1.6645,-1.6641,-1.6638,-1.6596,-1.6597,-1.6599,0,0,0,0,0,0,0,0,0,0,0,0,0,-1.6792,-1.6808,-1.6823,-1.6753,-1.6746,-1.6776,-1.6776,-1.6775,-1.6649,-1.6645,-1.664,-1.6636,-1.6595,-1.6597,-1.6599,-1.6695,0,0,-1.6606,-1.6607,0,0,0,0,0,0,0,0,-1.6793,-1.6793,-1.6764,-1.6758,-1.675,-1.6713,-1.6754,-1.6748,-1.665,-1.6686,-1.6639,-1.6634,-1.6639,-1.6637,-1.6638,-1.6693,-1.6692,-1.6606,-1.6607,-1.6608,-1.6609,0,0,0,0,0,0,0,-1.6794,-1.6794,-1.6805,-1.6764,-1.6755,-1.6725,-1.6718,-1.6752,-1.6686,-1.6682,-1.6673,-1.6669,-1.6634,-1.6636,-1.6636,-1.6691,-1.6606,-1.6608,-1.6609,-1.661,-1.6824,-1.6828,0,0,0,0,0,0,-1.6805,-1.6796,-1.6806,-1.6803,-1.6762,-1.6729,-1.6721,-1.6729,-1.6686,-1.6675,-1.6673,-1.6663,-1.6634,-1.6633,-1.6634,-1.6744,-1.6608,-1.661,-1.6611,-1.6819,-1.6825,-1.6829,0,0,0,0,0,0,-1.6805,-1.6807,-1.6808,-1.6797,-1.6795,-1.6733,-1.6744,-1.6731,-1.6732,-1.6678,-1.6666,-1.6686,-1.6631,-1.6631,-1.6681,-1.6741,-1.6611,-1.6613,-1.6814,-1.6821,-1.6827,-1.6965,0,0,0,0,0,0,-1.6805,-1.6808,-1.6843,-1.6799,-1.6796,-1.6855,-1.6747,-1.6733,-1.6735,-1.6723,-1.6687,-1.6678,-1.6628,-1.6678,-1.6683,-1.6741,-1.6615,-1.6809,-1.6817,-1.6825,-1.6955,-1.6976,-1.6993,0,0,0,0,0,-1.6805,-1.6885,-1.6845,-1.6847,-1.6838,-1.6859,-1.6857,-1.6797,-1.6741,-1.6776,-1.6741,-1.6679,-1.6733,-1.6684,-1.6689,-1.6749,-1.6805,-1.6815,-1.6824,-1.6946,-1.6972,-1.6993,0,0,0,0,0,0,-1.6939,-1.6878,-1.6833,-1.6901,-1.6886,-1.6837,-1.688,-1.6826,-1.6828,-1.6816,-1.6742,-1.6735,-1.6796,-1.6777,-1.6724,-1.6839,-1.6758,-1.677,-1.685,-1.6873,-1.6892,-1.6896,-1.6617,0,0,0,0,0,-1.6977,-1.6997,-1.6942,-1.7007,-1.7002,-1.6943,-1.695,-1.6904,-1.6886,-1.688,-1.6848,-1.6835,-1.6849,-1.686,-1.6869,-1.6951,-1.6942,-1.6994,-1.7013,-1.7029,-1.7041,-1.7083,-1.7106,-1.6862,-1.6862,-1.6862,0,0,-1.7055,-1.7023,-1.7041,-1.7034,-1.7017,-1.7041,-1.6938,-1.6969,-1.6986,-1.6885,-1.693,-1.6907,-1.6887,-1.6953,-1.6981,-1.6939,-1.7105,-1.7042,-1.7055,-1.7057,-1.7096,-1.7119,-1.7139,-1.6869,-1.6867,-1.6866,0,0,-1.7209,-1.7187,-1.7238,-1.7223,-1.7198,-1.7158,-1.717,-1.713,-1.711,-1.7154,-1.7078,-1.7099,-1.7124,-1.7113,-1.7111,-1.726,-1.7203,-1.7265,-1.7366,-1.7408,-1.7428,-1.7444,-1.7499,-1.7519,-1.7276,-1.7276,-1.7277,0,-1.7309,-1.7341,-1.7272,-1.7307,-1.7307,-1.7214,-1.7266,-1.7255,-1.7236,-1.7238,-1.7191,-1.722,-1.72,-1.7263,-1.73,-1.7301,-1.7314,-1.727,-1.743,-1.7446,-1.7461,-1.7512,-1.7533,-1.7284,-1.7283,-1.7282,-1.7282,0,-1.7467,-1.749,-1.7535,-1.7517,-1.7521,-1.7565,-1.7504,-1.7517,-1.7471,-1.7436,-1.7482,-1.7455,-1.7457,-1.7468,-1.7424,-1.7526,-1.75,-1.7443,-1.736,-1.7493,-1.754,-1.7559,-1.7295,-1.7293,-1.729,-1.7288,0,0,-1.7707,-1.7648,-1.7666,-1.7656,-1.7621,-1.7639,-1.7679,-1.7679,-1.7693,-1.7682,-1.7715,-1.7738,-1.7684,-1.7681,-1.7635,-1.7672,-1.7793,-1.7609,-1.7608,-1.7646,-1.7905,-1.795,-1.7973,-1.7754,-1.7758,-1.7761,-1.7907,0,-1.7853,-1.7916,-1.7855,-1.7931,-1.7953,-1.7864,-1.7899,-1.7882,-1.7851,-1.7865,-1.7831,-1.7849,-1.7775,-1.7774,-1.7806,-1.7772,-1.7845,-1.776,-1.7786,-1.7788,-1.7796,-1.7998,-1.8045,-1.8185,-1.7925,-1.7928,-1.793,0,-1.8033,-1.8029,-1.8107,-1.8067,-1.8074,-1.8106,-1.8102,-1.8116,-1.8096,-1.807,-1.8067,-1.801,-1.8047,-1.7966,-1.8017,-1.7961,-1.7968,-1.7953,-1.7956,-1.7958,-1.7868,-1.8007,-1.8228,-1.825,-1.7958,-1.7956,-1.7954,0,-1.8202,-1.8216,-1.8264,-1.8259,-1.8213,-1.8238,-1.822,-1.8195,-1.8199,-1.8196,-1.8198,-1.82,-1.8202,-1.8205,-1.8151,-1.8096,-1.821,-1.8123,-1.8191,-1.8193,-1.8221,-1.822,-1.8448,-1.8223,-1.8223,-1.8222,-1.8222,0,-1.8373,-1.8425,-1.8339,-1.837,-1.8425,-1.8354,-1.8412,-1.8385,-1.8363,-1.8388,-1.8311,-1.8336,-1.8261,-1.8279,-1.8236,-1.8286,-1.8287,-1.8269,-1.8258,-1.8277,-1.828,-1.8282,-1.8271,-1.8228,-1.8227,-1.8225,-1.8225,0,-1.8572,-1.8517,-1.8564,-1.8515,-1.8504,-1.8548,-1.8507,-1.8534,-1.8496,-1.8528,-1.8532,-1.8474,-1.8491,-1.8436,-1.8444,-1.8415,-1.8489,-1.8461,-1.8496,-1.8488,-1.856,-1.8555,-1.8798,-1.8827,-1.8583,-1.8585,-1.8587,0,-1.8686,-1.8723,-1.8678,-1.8688,-1.8674,-1.8691,-1.8695,-1.8627,-1.8634,-1.8613,-1.8643,-1.8652,-1.8656,-1.8687,-1.8647,-1.8653,-1.8625,-1.871,-1.8626,-1.8645,-1.8629,-1.8628,-1.8632,-1.8729,-1.8732,-1.8734,-1.8736,0,-1.8895,-1.8865,-1.8872,-1.887,-1.8876,-1.8871,-1.8862,-1.8875,-1.8801,-1.8814,-1.8828,-1.8832,-1.8839,-1.8851,-1.8848,-1.883,-1.8773,-1.8763,-1.8779,-1.88,-1.882,-1.8812,-1.8546,-1.8758,-1.8756,-1.8754,-1.8753,-1.8752,-1.9055,-1.9084,-1.9057,-1.9068,-1.9053,-1.9045,-1.9068,-1.9033,-1.9043,-1.9043,-1.9002,-1.9026,-1.9004,-1.8994,-1.8983,-1.9001,-1.8962,-1.8986,-1.8992,-1.8999,-1.9012,-1.8815,-1.9,-1.9,-1.8999,-1.8998,-1.8998,0,-1.9261,-1.9238,-1.9249,-1.9237,-1.9246,-1.9187,-1.9173,-1.9185,-1.9206,-1.919,-1.9195,-1.9213,-1.9224,-1.9184,-1.9189,-1.9211,-1.9185,-1.9215,-1.9214,-1.9211,-1.9046,-1.9032,-1.9237,-1.9237,-1.9237,-1.9237,-1.9236,-1.9236,-1.9369,-1.9415,-1.9383,-1.9421,-1.9398,-1.942,-1.9417,-1.941,-1.9397,-1.942,-1.9427,-1.94,-1.9375,-1.9377,-1.9385,-1.9373,-1.9379,-1.9419,-1.9399,-1.9246,-1.9223,-1.9201,-1.9187,-1.9421,-1.9421,-1.9562,-1.9564,-1.9565]},{"header":{"parameterUnit":"m.s-1","parameterCategory":1,"la1":30.2991,"la2":30.254,"lo1":-89.0895,"lo2":-89.0444,"dy":0.0017,"dx":0.0017,"nx":28,"ny":28,"refTime":"2024-08-03T09:00:00:Z","depth":0,"parameterNumber":3,"parameterNumberName":"V-component_of_WINDS"},"data":[0,0,0,0,0,0,0,0,0,0,0,0,0,0,0,0,0,0,0,0,0,0,0,0,0,0,0,0,0,0,0,0,0,0,0,0,0,0,0,0,0,0,0,0,0,0,0,0,0,0,0,0,0,0,0,0,0,0,-4.0495,-4.0496,0,-4.0588,-4.0589,-4.059,-4.0557,-4.0554,-4.0552,-4.055,-4.0642,-4.0646,-4.065,0,0,0,0,0,0,0,0,0,0,0,0,0,-4.0283,-4.0287,-4.0495,-4.0496,-4.0497,-4.0588,-4.0589,-4.0591,-4.0557,-4.0554,-4.0552,-4.0549,-4.064,-4.0645,-4.0651,0,0,0,0,0,0,0,0,0,0,0,0,0,-4.0375,-4.0288,-4.0495,-4.0492,-4.0492,-4.0588,-4.059,-4.0591,-4.0557,-4.0554,-4.0551,-4.0548,-4.0638,-4.0645,-4.0651,-4.0754,0,0,-4.0671,-4.0674,0,0,0,0,0,0,0,0,-4.037,-4.0383,-4.0491,-4.0492,-4.0493,-4.0558,-4.0548,-4.0646,-4.0558,-4.0533,-4.055,-4.0547,-4.0616,-4.0624,-4.0648,-4.0759,-4.0763,-4.0672,-4.0676,-4.0679,-4.0681,0,0,0,0,0,0,0,-4.0364,-4.0379,-4.0532,-4.0492,-4.0494,-4.0484,-4.0493,-4.0566,-4.059,-4.0535,-4.0532,-4.0544,-4.0616,-4.0642,-4.065,-4.0764,-4.0672,-4.0678,-4.0682,-4.0684,-4.0962,-4.0965,0,0,0,0,0,0,-4.0357,-4.0374,-4.0529,-4.0535,-4.0423,-4.049,-4.0501,-4.054,-4.059,-4.0594,-4.0547,-4.0542,-4.0632,-4.0643,-4.0653,-4.0776,-4.0679,-4.0685,-4.0689,-4.0958,-4.0962,-4.0966,0,0,0,0,0,0,-4.0353,-4.0372,-4.0525,-4.0454,-4.0472,-4.0497,-4.0541,-4.0543,-4.057,-4.0599,-4.0603,-4.0569,-4.063,-4.0644,-4.0729,-4.0779,-4.0688,-4.0694,-4.0954,-4.0959,-4.0964,-4.1024,0,0,0,0,0,0,-4.0347,-4.037,-4.0411,-4.0455,-4.0476,-4.0602,-4.0544,-4.0548,-4.0582,-4.0577,-4.0621,-4.0626,-4.0629,-4.072,-4.0736,-4.0786,-4.0699,-4.095,-4.0956,-4.0963,-4.1017,-4.103,-4.1041,0,0,0,0,0,-4.034,-4.0424,-4.0413,-4.0432,-4.0528,-4.0604,-4.0617,-4.062,-4.0586,-4.0626,-4.0644,-4.0624,-4.0771,-4.0729,-4.0747,-4.08,-4.0947,-4.0955,-4.0962,-4.1012,-4.1028,-4.1041,0,0,0,0,0,0,-4.0384,-4.0429,-4.0418,-4.0519,-4.0559,-4.0599,-4.065,-4.0637,-4.0685,-4.0678,-4.0679,-4.069,-4.0777,-4.0797,-4.0749,-4.0901,-4.0853,-4.0865,-4.0885,-4.0901,-4.0912,-4.0905,-4.0704,0,0,0,0,0,-4.0405,-4.0465,-4.0501,-4.0586,-4.0607,-4.0625,-4.0658,-4.0658,-4.0698,-4.0713,-4.0738,-4.0776,-4.0831,-4.0867,-4.0919,-4.102,-4.1028,-4.1065,-4.1077,-4.1087,-4.1097,-4.115,-4.1166,-4.0991,-4.0991,-4.0991,0,0,-4.045,-4.0483,-4.052,-4.0596,-4.0626,-4.0686,-4.0639,-4.0705,-4.0749,-4.0723,-4.0805,-4.0825,-4.0867,-4.0961,-4.1003,-4.098,-4.1147,-4.1097,-4.1104,-4.1109,-4.116,-4.1176,-4.1191,-4.0997,-4.0996,-4.0995,0,0,-4.0563,-4.0594,-4.0668,-4.07,-4.0746,-4.0758,-4.0775,-4.0818,-4.083,-4.0913,-4.0894,-4.0945,-4.104,-4.107,-4.1098,-4.1221,-4.1204,-4.1238,-4.13,-4.1352,-4.1366,-4.1378,-4.1421,-4.1436,-4.1248,-4.1248,-4.1248,0,-4.0613,-4.0704,-4.0708,-4.0775,-4.0808,-4.0789,-4.0862,-4.0892,-4.0953,-4.0975,-4.0949,-4.1066,-4.1093,-4.1193,-4.1223,-4.1247,-4.1265,-4.1233,-4.1364,-4.1376,-4.1387,-4.1428,-4.1444,-4.1252,-4.1251,-4.1251,-4.1251,0,-4.0762,-4.0826,-4.088,-4.094,-4.0979,-4.1049,-4.1062,-4.1101,-4.1096,-4.111,-4.1193,-4.1225,-4.1282,-4.1306,-4.1302,-4.1405,-4.1389,-4.1363,-4.1315,-4.1408,-4.1446,-4.1462,-4.1257,-4.1256,-4.1255,-4.1254,0,0,-4.0906,-4.0967,-4.0986,-4.1013,-4.1062,-4.111,-4.1179,-4.1236,-4.1269,-4.1311,-4.1367,-4.1447,-4.1423,-4.1455,-4.1454,-4.15,-4.1593,-4.1468,-4.1469,-4.149,-4.1707,-4.1725,-4.1743,-4.1582,-4.1585,-4.1588,-4.1703,0,-4.1021,-4.1144,-4.1148,-4.1258,-4.1316,-4.1297,-4.1357,-4.1392,-4.1407,-4.1456,-4.1471,-4.1527,-4.1492,-4.1511,-4.1556,-4.1573,-4.1637,-4.1565,-4.1633,-4.1635,-4.1622,-4.1764,-4.1784,-4.1891,-4.1718,-4.172,-4.1722,0,-4.1173,-4.1221,-4.1338,-4.1378,-4.1402,-4.1456,-4.1508,-4.1556,-4.1595,-4.1602,-4.1637,-4.1629,-4.1697,-4.1647,-4.1739,-4.169,-4.1718,-4.173,-4.1734,-4.174,-4.1684,-4.1772,-4.1925,-4.1941,-4.1746,-4.1744,-4.1742,0,-4.1265,-4.1358,-4.144,-4.1463,-4.1512,-4.155,-4.1572,-4.1608,-4.1642,-4.1687,-4.1708,-4.176,-4.1788,-4.1828,-4.1833,-4.1796,-4.1925,-4.1876,-4.1931,-4.1931,-4.1959,-4.1957,-4.2118,-4.1979,-4.1978,-4.1978,-4.1978,0,-4.1393,-4.1465,-4.1481,-4.1532,-4.161,-4.1614,-4.1692,-4.171,-4.1743,-4.1794,-4.1781,-4.183,-4.1834,-4.1884,-4.1888,-4.1963,-4.1976,-4.1982,-4.1982,-4.1983,-4.1982,-4.2001,-4.1993,-4.1982,-4.1981,-4.198,-4.198,0,-4.1509,-4.1523,-4.161,-4.165,-4.1661,-4.1718,-4.175,-4.1797,-4.181,-4.1875,-4.1891,-4.191,-4.1968,-4.1977,-4.2044,-4.2047,-4.2137,-4.2129,-4.2124,-4.2123,-4.2177,-4.2171,-4.2355,-4.2378,-4.2225,-4.2226,-4.2227,0,-4.159,-4.1644,-4.169,-4.1724,-4.1748,-4.1804,-4.1838,-4.1843,-4.1879,-4.1928,-4.1968,-4.2025,-4.207,-4.2162,-4.2181,-4.2232,-4.2225,-4.2286,-4.2233,-4.2231,-4.2225,-4.2221,-4.2226,-4.2296,-4.2298,-4.2299,-4.23,0,-4.1731,-4.1735,-4.1786,-4.184,-4.1881,-4.1923,-4.1963,-4.1991,-4.2001,-4.2042,-4.2101,-4.2136,-4.2205,-4.2261,-4.2311,-4.2331,-4.2317,-4.2317,-4.2332,-4.2333,-4.2327,-4.233,-4.2151,-4.2312,-4.2311,-4.231,-4.231,-4.2309,-4.1831,-4.1878,-4.1918,-4.1974,-4.2005,-4.2042,-4.2087,-4.2106,-4.2156,-4.2213,-4.2212,-4.2277,-4.2313,-4.2379,-4.2403,-4.2452,-4.2433,-4.2455,-4.2461,-4.2466,-4.2471,-4.232,-4.2462,-4.2461,-4.2461,-4.2461,-4.246,0,-4.1971,-4.1995,-4.2047,-4.2103,-4.2147,-4.2132,-4.2174,-4.2211,-4.2269,-4.2305,-4.235,-4.2417,-4.247,-4.2493,-4.2545,-4.258,-4.2574,-4.2593,-4.259,-4.2595,-4.2486,-4.2467,-4.2597,-4.2597,-4.2597,-4.2597,-4.2597,-4.2597,-4.2049,-4.2128,-4.2136,-4.2229,-4.2252,-4.2316,-4.2342,-4.2375,-4.2403,-4.248,-4.2524,-4.2539,-4.2569,-4.2623,-4.2671,-4.2676,-4.2695,-4.2717,-4.2719,-4.2617,-4.2603,-4.259,-4.2572,-4.2721,-4.2721,-4.2824,-4.2825,-4.2825]}]]